COSMOS 198

Satellite information

Favourite Embed

Satellite Type and Status

PAYLOADIN ORBIT

Key statistics

Satellite COSMOS 198 at a glance.

Uptime

21125

Days in orbit

Revolutions

≈ 13.9

Per day

Orbit

LEO

Low Earth Orbit

Inclination

65.1

Latest

Satellite identification and parameters

Extended collection of information and parameters for COSMOS 198.

Object identification

Identified? True

Debris? False

Object name: COSMOS 198

International designator: 1967-127A

Object number (NORAD): 3081

Object ID (CCSDS): 3081

Country: COMMONWEALTH OF INDEPENDENT STATES (CIS)

Current information (Y/N): Y

RCS size: LARGE

Orbital parameters

Period: 103.346 minutes

Inclination: 65.1418 deg

SMA: 7294.966 km

Apoapsis: 936.707 km

Periapsis: 896.956 km

RAAN: 169.493 deg

Eccentricy: 0.00272454

Argument of periapsis: 194.4997 deg

Mean anomaly: 165.5291 deg

Mean motion: 13.93374363 rev/day

Mean motion (dot): -0.00000046 rev/day2

B* drag term: 0.000033397641 1/REarth

Two-line elements (TLE)

Creation date: Oct. 28, 2025, 2:18 a.m.

Reference frame: TEME

Reference center: EARTH

Epoch: Oct. 27, 2025, 9:37 p.m. UTC

TLE line 0: 0 COSMOS 198

TLE line 1: 1 03081U 67127A 25300.90101657 -.00000046 00000-0 33398-4 0 9995

TLE line 2: 2 03081 65.1418 169.4930 0027245 194.4997 165.5291 13.93374363941212

Live tracking on map

Real-time ground track for satellite COSMOS 198.

In-orbit conjunctions

A list of the most updated potential collisions computed for object COSMOS 198.

Target Orbit TCA Probability of collision Miss distance Type
SL-14 DEB LEO 2025-10-21 21:16:38 0.001290616 268.0 (m) DEBRIS
FREGAT R/B HEO 2025-05-23 04:47:19 0.0007502977 136.0 (m) ROCKET BODY
METEOR 2-17 DEB LEO 2024-12-25 08:02:07 0.0004458146 114.0 (m) DEBRIS
CZ-6A DEB SSO 2024-10-11 18:47:00 0.0006966901 394.0 (m) DEBRIS
METEOR 2-20 DEB LEO 2024-09-25 10:51:25 0.0003585412 776.0 (m) DEBRIS

Associated space launch

US-A (Upravlenniye Sputnik Aktivny) were active radar satellites for ocean surveillance. The high power consumtion of the active radar required a nuclear reactor as power source. The satellites were known as RORSAT in the west. The US-AO series consisted of satellites, which tested all the system components but the nuclear reactor. They were battery powered.

COSMOS 198 was lifted into orbit during the mission ‘Tsiklon-2A | US-AO 3’, on board a Tsiklon-2A space rocket.

The launch took place on Dec. 27, 1967, 11:28 a.m. from 90/19.

For more information about the launch, click the button.

Launch to space Tsiklon-2A | US-AO 3
Tsiklon-2A | US-AO 3

Agency: N/A

Status: Launch Successful

Launch date: Dec. 27, 1967, 11:28 a.m. UTC

Rocket: Tsiklon-2A

Launch pad: 90/19

Location: Baikonur Cosmodrome, Republic of Kazakhstan

...

Latest news about this satellite

There are no fresh news available about this satellite. Check back as we update our databases every day.


Newsletter sign-up

Weekly statistics, charts and insights to help you stay on top of the space industry.